This is the latest recevied weather packets stored in our database for station/object HB9CJD-1. If no packets are shown the sender has not sent any weather packets the latest 10 day(s).
| Time | Temp. | Humidity | Pressure | Rain* | Wind** | Luminosity | Snow |
|---|---|---|---|---|---|---|---|
| 1777483595 | 22.78° C | 27% | 1020.3 hPa | - | - | - | - |
| 1777482388 | 22.78° C | 29% | 1020.2 hPa | - | - | - | - |
| 1777482388 | 22.78° C | 29% | 1020.2 hPa | - | - | - | - |
| 1777481785 | 23.33° C | 29% | 1020.3 hPa | - | - | - | - |
| 1777481785 | 23.33° C | 29% | 1020.3 hPa | - | - | - | - |
| 1777481182 | 22.78° C | 29% | 1020.2 hPa | - | - | - | - |
| 1777479975 | 22.78° C | 31% | 1020.1 hPa | - | - | - | - |
| 1777479372 | 22.78° C | 33% | 1020 hPa | - | - | - | - |
| 1777476959 | 22.78° C | 33% | 1020 hPa | - | - | - | - |
| 1777476356 | 22.78° C | 36% | 1020 hPa | - | - | - | - |
| 1777474546 | 22.78° C | 35% | 1020.1 hPa | - | - | - | - |
| 1777473339 | 23.33° C | 35% | 1020.1 hPa | - | - | - | - |
| 1777472133 | 22.22° C | 39% | 1020 hPa | - | - | - | - |
| 1777469117 | 21.67° C | 40% | 1020.2 hPa | - | - | - | - |
| 1777468513 | 21.67° C | 39% | 1020.3 hPa | - | - | - | - |
| 1777467910 | 21.67° C | 40% | 1020.2 hPa | - | - | - | - |
| 1777467307 | 21.67° C | 42% | 1020.2 hPa | - | - | - | - |
| 1777466704 | 20.56° C | 44% | 1020.2 hPa | - | - | - | - |
| 1777466100 | 20° C | 42% | 1020.2 hPa | - | - | - | - |
| 1777465497 | 20° C | 44% | 1020.3 hPa | - | - | - | - |
| 1777465497 | 20° C | 44% | 1020.3 hPa | - | - | - | - |
| 1777464894 | 20.56° C | 48% | 1020.3 hPa | - | - | - | - |
| 1777464894 | 20.56° C | 48% | 1020.3 hPa | - | - | - | - |
| 1777464291 | 20° C | 47% | 1020.3 hPa | - | - | - | - |
| 1777462481 | 17.22° C | 53% | 1020.6 hPa | - | - | - | - |
* Rain since midnight (hover to see other rain measurements)
** Current wind speed in m/s (hover to see current wind gust speed)